This demonstration page uses our WeatherBlox Daily Observations layout. Learn more.

Left ArrowRight Arrow

Hourly Observations for February 14, 2017

Temp ( °F °C ) Dew Point ( °F °C ) Humidity (%) Winds ( mph kmh ) Pressure ( in mb ) Visibility ( mi km ) Precip ( " mm )
12:19 am 00:19 Cloudy 42 5.6 39 3.9 89 89 N 5 7 30.09 1019 10 16 0.00 0.00
12:53 am 00:53 Cloudy 42 5.6 39 3.9 89 89 NNW 3 6 30.04 1017 10 16 0.00 0.00
1:48 am 01:48 Cloudy 43 6 39 4 87 87 Calm 30.09 1019 10 16 0.00 0.00
1:53 am 01:53 Cloudy 42 5.6 40 4.4 92 92 Calm 30.02 1017 10 16 0.00 0.00
2:35 am 02:35 Cloudy 43 6.1 40 4.4 89 89 WNW 3 6 30.09 1019 10 16 0.00 0.00
2:53 am 02:53 Cloudy 43 6.1 40 4.4 89 89 NW 3 6 30.03 1017 10 16 0.00 0.00
3:38 am 03:38 Cloudy 43 6 39 4 87 87 WNW 8 13 30.06 1018 10 16 0.00 0.00
3:53 am 03:53 Cloudy 43 6.1 40 4.4 89 89 WNW 8 13 30.01 1016 10 16 0.00 0.00
4:18 am 04:18 Cloudy 43 6 39 4 87 87 NW 12 19 30.06 1018 10 16 0.00 0.00
4:53 am 04:53 Cloudy 43 6.1 39 3.9 86 86 NW 8 13 30.02 1017 10 16 0.00 0.00
5:06 am 05:06 Cloudy 43 6 39 4 87 87 NW 9 15 30.09 1019 10 16 0.00 0.00
5:18 am 05:18 Cloudy 43 6 39 4 87 87 NW 9 15 30.06 1018 10 16 0.00 0.00
5:53 am 05:53 Cloudy 43 6.1 39 3.9 86 86 NW 8 13 30.03 1017 10 16 0.00 0.00
6:08 am 06:08 Cloudy with Light Rain 43 6 39 4 87 87 WNW 8 13 30.09 1019 10 16 0.00 0.00
6:53 am 06:53 Cloudy with Light Rain 43 6.1 40 4.4 89 89 NW 9 15 30.03 1017 10 16 0.00 0.03
7:29 am 07:29 Cloudy 44 6.7 40 4.4 85 85 NW 12 19 30.09 1019 10 16 0.00 0.03
7:53 am 07:53 Cloudy 44 6.7 40 4.4 85 85 WNW 12 19 30.06 1018 10 16 0.00 0.03
8:32 am 08:32 Cloudy 45 7 39 4 81 81 NW 12 19 30.12 1020 10 16 0.00 0.00
8:53 am 08:53 Cloudy 45 7.2 40 4.4 83 83 NW 14 22 30.08 1019 10 16 0.00 0.00
9:04 am 09:04 Cloudy 45 7 39 4 81 81 NW 15 24 30.12 1020 10 16 0.00 0.00
9:15 am 09:15 Cloudy 45 7.2 40 4.4 83 83 NW 15 24 30.12 1020 10 16 0.00 0.00
9:45 am 09:45 Cloudy 45 7.2 38 3.3 77 77 NNW 20 31 30.15 1021 10 16 0.00 0.00
9:53 am 09:53 Cloudy 46 7.8 38 3.3 73 73 N 21 33 30.09 1019 10 16 0.00 0.00
10:53 am 10:53 Cloudy 48 8.9 37 2.8 66 66 NNW 21 33 30.10 1019 10 16 0.00 0.00
11:09 am 11:09 Cloudy 48 8.9 36 2.2 63 63 NNW 22 35 30.12 1020 10 16 0.00 0.00
11:53 am 11:53 Cloudy 47 8.3 35 1.7 63 63 NNW 23 37 30.11 1020 10 16 0.00 0.00
12:36 pm 12:36 Cloudy 46 8 34 1 62 62 N 22 35 30.18 1022 10 16 0.00 0.00
12:53 pm 12:53 Cloudy 47 8.3 33 0.6 59 59 N 23 37 30.11 1020 10 16 0.00 0.00
1:23 pm 13:23 Cloudy 45 7.2 33 0.6 63 63 N 23 37 30.18 1022 10 16 0.00 0.00
1:31 pm 13:31 Cloudy 46 7.8 32 0 58 58 N 22 35 30.18 1022 10 16 0.00 0.00
1:53 pm 13:53 Cloudy 46 7.8 32 0 58 58 N 18 30 30.11 1020 10 16 0.00 0.00
2:53 pm 14:53 Cloudy 47 8.3 31 -0.6 54 54 N 20 31 30.11 1020 10 16 0.00 0.00
3:53 pm 15:53 Cloudy 47 8.3 30 -1.1 52 52 N 20 31 30.11 1020 10 16 0.00 0.00
4:53 pm 16:53 Cloudy 46 7.8 29 -1.7 51 51 N 20 31 30.12 1020 10 16 0.00 0.00
5:53 pm 17:53 Cloudy 46 7.8 29 -1.7 51 51 N 16 26 30.14 1021 10 16 0.00 0.00
6:53 pm 18:53 Mostly Cloudy 43 6.1 28 -2.2 56 56 N 14 22 30.17 1022 10 16 0.00 0.00
7:53 pm 19:53 Cloudy 44 6.7 26 -3.3 49 49 N 21 33 30.18 1022 10 16 0.00 0.00
8:53 pm 20:53 Cloudy 43 6.1 27 -2.8 53 53 N 9 15 30.21 1023 10 16 0.00 0.00
9:53 pm 21:53 Cloudy 42 5.6 28 -2.2 58 58 N 5 7 30.22 1023 10 16 0.00 0.00
10:53 pm 22:53 Mostly Clear 39 3.9 28 -2.2 65 65 NNW 5 7 30.21 1023 10 16 0.00 0.00
11:53 pm 23:53 Clear 35 1.7 27 -2.8 72 72 WNW 6 9 30.22 1024 10 16 0.00 0.00

Powered by AerisWeather